Regional Weather Roundup
Issued by NWS

Home | Current Version | Previous Version | Text Only | Print | Product List | Glossary Off
Versions: 1 2 3 4 5 6 7 8 9 10 11 12 13 14 15 16 17 18 19 20 21 22 23 24 25 26 27 28 29 30 31 32 33 34 35 36 37 38 39 40 41 42 43 44 45 46 47 48 49 50

000
ASUS43 KDMX 300707
RWRIA

WEATHER ROUNDUP FOR IOWA
NATIONAL WEATHER SERVICE DES MOINES IA
200 AM CDT SUN AUG 30 2015

NOTE: "FAIR" INDICATES FEW OR NO CLOUDS BELOW 12,000 FEET WITH NO
SIGNIFICANT WEATHER AND/OR OBSTRUCTIONS TO VISIBILITY.

* - THESE STATIONS ARE NOT NWS STATIONS...THUS NOT UNDER NWS
QUALITY CONTROL.  THEY ALSO DO NOT REPORT WEATHER SUCH
AS PRECIPITATION OR FOG.

IAZ001>003-012>014-020>022-031>034-043>046-300800-
   NORTHWEST IOWA

CITY           SKY/WX    TMP DP  RH WIND       PRES   REMARKS
CARROLL *      CLOUDY    59  59 100 CALM      30.04F FOG
CHEROKEE *     CLOUDY    63  63 100 S7        30.04S
DENISON *      CLOUDY    64  63  94 S6        30.03S
LE MARS *      CLOUDY    64  63  94 S9        30.03S
ORANGE CITY *  CLOUDY    63  63 100 S12       30.03S
SHELDON *      CLOUDY    63  61  94 S8        30.02S
SPENCER        CLOUDY    61  59  93 S10       30.03F
STORM LAKE *   CLOUDY    61  61 100 S7G14     30.05F
$$

IAZ055>058-069>071-079>083-090>094-300800-
   SOUTHWEST IOWA

CITY           SKY/WX    TMP DP  RH WIND       PRES   REMARKS
ATLANTIC *     CLOUDY    61  61 100 CALM      30.05S
AUDUBON *      CLEAR     57  55  94 CALM      30.06S FOG
CLARINDA *     FOG       59  59 100 CALM      30.06F VSB 1/4
COUNCIL BLFS * CLOUDY    63  63 100 S5        30.04F
CRESTON *      FOG       59  59 100 SE3       30.07F VSB 0
HARLAN  *      CLOUDY    64 N/A N/A CALM      30.08S
LAMONI         FOG       63  61  93 CALM      30.05F VSB 1/2
RED OAK *      CLOUDY    63  63 100 CALM      30.05S FOG
SHENANDOAH *   FOG       59  59 100 CALM      30.06S VSB 1
$$

IAZ047>049-059>061-072>074-084-300800-
   CENTRAL IOWA

CITY           SKY/WX    TMP DP  RH WIND       PRES   REMARKS
AMES           FOG       58  58 100 CALM      30.04F VSB 1/4
ANKENY *       FOG       59  59 100 CALM      30.04F VSB 1/4
CHARITON *     FOG       61  61 100 NE3       30.05S VSB 0
DES MOINES     PTCLDY    66  62  87 SE3       30.04F
GRINNELL*      FOG       59  57  94 CALM      30.06S VSB 1/2
KNOXVILLE *    CLOUDY    64  63  94 NE3       30.03F
MARSHALLTOWN   FOG       60  59  96 CALM      30.05S VSB 1/4
PELLA *        FOG       61  61 100 CALM      30.06S VSB 1/2
PERRY *        FOG       59  59 100 CALM      30.05S VSB 1/2
$$

IAZ004>006-015-016-023>025-035-036-300800-
   NORTH CENTRAL IOWA

CITY           SKY/WX    TMP DP  RH WIND       PRES   REMARKS
ALGONA *       CLOUDY    57  57 100 S8        30.04F FOG
CLARION *      CLOUDY    59  57  94 CALM      30.04F FOG
ESTHERVILLE    CLOUDY    61  60  97 S13       30.03S
FORT DODGE *   CLOUDY    63  59  88 CALM      30.06R
MASON CITY     FOG       58  58 100 S3        30.05F VSB 1/4
FOREST CITY *  FOG       54  54 100 CALM      30.04F VSB 1/4
IOWA FALLS *   FOG       61  61 100 CALM      30.05F VSB 1/2
$$

IAZ007>011-017>019-026>030-037>042-050>054-066-300800-
   NORTHEAST IOWA

CITY           SKY/WX    TMP DP  RH WIND       PRES   REMARKS
CEDAR RAPIDS   FOG       59  59 100 NW6       30.05S VSB 1/4
CHARLES CITY * FOG       59  59 100 CALM      30.05F VSB 1/2
CLINTON *      CLEAR     61  59  94 NE5       30.06F
DECORAH *      CLOUDY    61  61 100 CALM      30.05S
DUBUQUE        CLEAR     62  60  93 NE5       30.06S
MONTICELLO *   FOG       59  57  94 CALM      30.05S VSB 1/2
OELWEIN *      CLEAR     57  57 100 SE3       30.05F FOG
WATERLOO       CLEAR     58  56  93 CALM      30.04F
$$

IAZ064-065-067-068-078-300800-
   EAST CENTRAL IOWA

CITY           SKY/WX    TMP DP  RH WIND       PRES   REMARKS
DAVENPORT      FOG       61  60  97 E3        30.05S VSB 1/2
IOWA CITY      CLOUDY    63  62  97 CALM      30.05S
MT. PLEASANT * FOG       66  63  88 CALM      30.04S VSB<1/4
MUSCATINE *    FOG       63  61  94 CALM      30.04S VSB 0
QUAD CITIES    FOG       60  59  96 CALM      30.04S VSB 1/4
$$

IAZ062-063-075>077-085>089-095>099-300800-
   SOUTHEAST IOWA

CITY           SKY/WX    TMP DP  RH WIND       PRES   REMARKS
BURLINGTON     CLOUDY    68  68 100 NE7       30.03S FOG
FAIRFIELD *    FOG       64  63  94 N3        30.04S VSB 1/4
FORT MADISON * FOG       64  64 100 N3        30.03F VSB 1
KEOKUK *       FOG       68  66  94 N3        30.02S VSB 1/2
OSKALOOSA *    FOG       63  63 100 CALM      30.05S VSB 3/4
CENTERVILLE *  FOG       63  63 100 CALM      30.06S VSB 1/4
OTTUMWA        FOG       66  66 100 NE3       30.03S VSB 1/4
WASHINGTON *     N/A    N/A N/A N/A MISG        N/A
$$

ABBREVIATIONS USED IN REMARKS
   TC - TEMPERATURES IN CELSIUS
  WCI - WIND CHILL INDEX
   HX - HEAT INDEX
  VSB - VISIBILITY
$$




USA.gov is the U.S. government's official web portal to all federal, state and local government web resources and services.